LogoCoinalyze
    Ad-Free Version Главная Рынки Ставки финансирования
    Фьючерсные данные
    • Агрегированные данные (Коины)
    • Индивидуальные графики
    • Глобальные графики
    Оповещения
    TA
    Bitcoin Ethereum BNB Ripple Tron ZCash Dogecoin Monero UNUS SED LEO Chainlink Cardano Stellar Lumens Bitcoin Cash Litecoin Hedera Cronos Polkadot Ethereum Classic Cosmos Algorand Quant Dash VeChain Bitcoin SV BitTorrent Terra Decred Tezos Iota The Graph THETA NEO Decentraland Chiliz MultiversX Golem Horizen Basic Attention Token DigiByte Qtum 0x Beam FTX Token RIF Token Holo FUNToken Ontology aelf Zilliqa Nano Ravencoin Enjin Coin Mask Network Verge Siacoin Status WINk Waves IoTeX iExec RLC Power Ledger Steem Kyber Network Crystal Lisk Ark WOO Network Ardor IOST WAX Icon Storj Komodo Wanchain Loopring Bitcoin Diamond AdEx Augur OmiseGO Bitcoin Gold NEM MonaCoin BitShares Ren V Systems Nuls Mithril SOLVE Maker Aion EOS HedgeTrade Nebulas Bytom Metaverse ETP GXChain MaidSafeCoin QASH Polygon Fetch.ai Fantom Waltonchain Bread TomoChain
    Заказать:
    Еще
    • API
    • Паттерны свечей
    • Пожертвования
    • Контактная
    • Карта сайта
    • Privacy Policy
    • Disclaimer
    • Theme:
    Русский
    • English
    • Français
    • Deutsch
    • Türkçe
    • Nederlands
    • Português (BR)
    • Español
    • 한국어
    • 简体中文
    • 日本語
     
    Войти / Подписаться
    Markets/ Pepe/ PEPE к USDT/ PEPEUSDT Bybit
    Trades
    WL
    Чат
    Стат
    Новости
    ⦷
    AAA
    0.0000035730 3145800.00000000 21:09:52
    0.0000035730 5251600.00000000 21:09:52
    0.0000035720 8399832.00000000 21:08:38
    0.0000035720 1081150.00000000 21:08:38
    0.0000035720 516498.00000000 21:08:38
    0.0000035700 793276.00000000 21:08:19
    0.0000035690 93.00000000 21:08:19
    0.0000035690 8406800.00000000 21:08:14
    0.0000035680 2287908.00000000 21:07:55
    0.0000035680 2103492.00000000 21:07:55
    0.0000035680 2102903.00000000 21:07:55
    0.0000035670 67.00000000 21:07:55
    0.0000035670 26520600.00000000 21:07:47
    0.0000035670 5042159.00000000 21:07:47
    0.0000035670 2103492.00000000 21:07:47
    0.0000035660 49.00000000 21:07:47
    0.0000035660 8413918.00000000 21:07:45
    0.0000035660 2104082.00000000 21:07:45
    0.0000035650 104625000.00000000 21:07:33
    0.0000035660 5678915.00000000 21:07:21
    0.0000035650 53477100.00000000 21:07:06
    0.0000035650 53477197.00000000 21:07:05
    0.0000035650 2102313.00000000 21:07:05
    0.0000035660 396553100.00000000 21:07:05
    0.0000035660 160317251.00000000 21:07:05
    0.0000035660 2545587.00000000 21:07:05
    0.0000035660 162066369.00000000 21:07:05
    0.0000035660 67687693.00000000 21:07:05
    0.0000035660 1377711.00000000 21:07:05
    0.0000035660 556870389.00000000 21:07:05
    0.0000035620 6141600.00000000 21:06:46
    0.0000035610 89684418.00000000 21:06:44
    0.0000035610 67687693.00000000 21:06:44
    0.0000035610 31581401.00000000 21:06:44
    0.0000035610 2107038.00000000 21:06:44
    0.0000035600 50.00000000 21:06:44
    0.0000035600 8428100.00000000 21:06:43
    0.0000035600 104625000.00000000 21:05:42
    0.0000035600 49.00000000 21:05:41
    0.0000035600 498947.00000000 21:05:41
    0.0000035600 701333.00000000 21:05:41
    0.0000035600 21965500.00000000 21:05:41
    0.0000035600 517016.00000000 21:05:41
    0.0000035600 1082233.00000000 21:05:41
    0.0000035600 794071.00000000 21:05:41
    0.0000035610 306537.00000000 21:05:40
    0.0000035620 17446883.00000000 21:05:38
    0.0000035630 2103492.00000000 21:05:36
    0.0000035660 231535662.00000000 21:05:20
    0.0000035660 2545587.00000000 21:05:20
    0.0000035680 50.00000000 21:04:40
    0.0000035680 8409200.00000000 21:04:39
    0.0000035670 8.00000000 21:04:19
    0.0000035670 8411600.00000000 21:04:14
    0.0000035680 25928424.00000000 21:04:04
    0.0000035680 2102903.00000000 21:04:04
    0.0000035670 31503189.00000000 21:03:48
    0.0000035670 78022045.00000000 21:03:48
    0.0000035670 89621840.00000000 21:03:48
    0.0000035670 560695262.00000000 21:03:48
    0.0000035670 8411608.00000000 21:03:48
    0.0000035660 3394116.00000000 21:03:19
    0.0000035660 104625000.00000000 21:03:19
    0.0000035660 13453512.00000000 21:03:18
    0.0000035660 53477100.00000000 21:03:18
    0.0000035660 5018500.00000000 21:03:18
    0.0000035660 105636800.00000000 21:03:18
    0.0000035660 1684447.00000000 21:03:18
    0.0000035650 67687693.00000000 21:03:18
    0.0000035650 2104673.00000000 21:03:18
    0.0000035640 2545587.00000000 21:03:18
    0.0000035640 2105264.00000000 21:03:18
    0.0000035640 1149707.00000000 21:03:18
    0.0000035640 67687693.00000000 21:03:18
    0.0000035630 169991655.00000000 21:03:18
    0.0000035630 174030511.00000000 21:03:18
    0.0000035630 382150900.00000000 21:03:18
    0.0000035620 13.00000000 21:03:18
    0.0000035620 315349100.00000000 21:03:18
    0.0000035620 246133200.00000000 21:03:18
    0.0000035640 1631185.00000000 21:03:07
    0.0000035660 322180.00000000 21:03:06
    0.0000035670 8411600.00000000 21:02:41
    0.0000035740 34497070.00000000 21:00:09
    0.0000035740 8395130.00000000 21:00:09
    0.0000035740 32654206.00000000 20:59:00
    0.0000035730 34683552.00000000 20:59:00
    0.0000035730 31504230.00000000 20:58:50
    0.0000035730 8397480.00000000 20:58:50
    0.0000035730 33204461.00000000 20:58:50
    0.0000035720 32.00000000 20:58:15
    0.0000035720 8399800.00000000 20:58:15
    0.0000035710 8401008.00000000 20:57:21
    0.0000035700 794071.00000000 20:57:07
    0.0000035730 2229331.00000000 20:56:33
    0.0000035720 104625000.00000000 20:56:33
    0.0000035720 1679261.00000000 20:56:32
    0.0000035730 164849948.00000000 20:56:32
    0.0000035730 175497491.00000000 20:56:32
    0.0000035730 2097609.00000000 20:56:32
    Выйти
    AAA
    Помощь
    🙂 🤣 😎 🤗 😛 😉 😜 🤑 🤔 😑 😴 😕 🙃 😲 😇 🙁 😢 😬 😟 😠 🕺 🏃 💪 ✌ 👌 👍 👎 👏 👋 🤝 🍺 🍻 🐋 🐟 🦈 🗽 🚄 ✈ 🛑 🚀 🏦 🌚 ⭐ 🌞 ⚡ 🏆 💰 💲 🔨 ❓ ❗ 💯 🔶 🏁
    ☺
    Войти или Подписаться и Чат
    24 Часа
    Изменения
    -1.98%
    Объем
    1,958,169,818,320
    Хай
    0.0000036770
    Лоу
    0.0000033640
    7 Дней
    Изменения
    -12.75%
    Объем
    14,233,061,996,187
    Хай
    0.0000043140
    Лоу
    0.0000033640
    30 Дней
    Изменения
    +29.69%
    Объем
    50,137,214,153,863
    Хай
    0.0000045550
    Лоу
    0.0000025300
    Pepe price rallies 25% as whale demand and futures interest surge
    Key takeaways Pepe has gained 25% this week, including a combined 22% advance over the previous two days. Seven whale transactions worth more than $1 million each occurred Thursday, the highest...
    coinjournal.net
    Aug 21, 2026 08:41
    PEPE Supply on Exchanges Just Took a Massive Hit – What’s Next?
    A drop in PEPE exchange balances has added to bullish expectations despite muted trader interest.
    cryptopotato.com
    Aug 6, 2026 20:02
    PEPE Exchange Outflows Hit Nearly 2-Year High as Whales Accumulate
    Pepe (PEPE) recorded its largest single-day exchange outflow since November 2024, with 4.54 trillion tokens leaving trading platforms, signaling that holders are moving supply away from immediate...
    beincrypto.com
    Aug 6, 2026 04:57
    Meme Coin Based on White House Shooter Conspiracy Rallies 320%
    $HENRY surged 300% after a 2023 Pepe tweet appeared to name the White House shooter, fueling a viral time-travel meme. The post Meme Coin Based on White House Shooter Conspiracy Rallies 320%...
    beincrypto.com
    Apr 27, 2026 16:11
    PEPE surges 4% as market sentiment improves, eyes Key resistance breakout
    Key takeaways Pepe extends gains on Wednesday, stretching its rally from the 50-day EMA. Derivatives data show heightened retail activity as risk-on sentiment returns to the market. Pepe (PEPE) is...
    coinjournal.net
    Apr 22, 2026 11:44
    Why The PEPE Price Could Stage A 55X Rally To Reach New $0.0001 ATH
    The PEPE price has now started to edge back into bullish conversations after the recent inflows into the crypto market. The last time PEPE’s weekly chart printed the kind of structure now...
    newsbtc.com
    Apr 21, 2026 15:30
    Pepe (PEPE) surges 9%, drawing interest from whales
    Key takeaways PEPE is up 9% in the last 24 hours, making it one of the best performers among the top 50 cryptocurrencies by market cap. The rally comes amid renewed interest from whales and retail...
    coinjournal.net
    Apr 16, 2026 07:40
    Murad Says SPX6900 (SPX) Is Primed for a Rally — Is He Right This Time?
    Crypto influencer Murad Mahmudov claims SPX6900 (SPX) is stabilizing at the same market cap level where Dogecoin (DOGE) and Pepe (PEPE) consolidated before their explosive rallies. The...
    beincrypto.com
    Apr 5, 2026 21:36
    The Shiba Inu Of This Cycle: Analyst Shares Why It Is Better To Buy PEPE Now
    In the bull market cycle of 2021-2022, the Shiba Inu meme coin made waves in a way that changed the face of meme coins forever. This came after Dogecoin’s initial 36,000% rally, and Shiba Inu...
    newsbtc.com
    Apr 4, 2026 07:30
    PEPE Explodes by 18% Amid Altcoin Rally, BTC Tapped $74K: Market Watch
    The frog-themed meme coin is today's biggest gainer, followed by TAO, DOT, and BONK.
    cryptopotato.com
    Mar 16, 2026 10:56
    Should PEPE traders brace for volatility as short squeeze potential builds?
    The memecoin market has seen its collective market capitalization drop by 48% over the past year, and 6.9% over the past month, according to CoinMarketCap. According to Glassnode, the memecoin...
    ambcrypto.com
    Mar 7, 2026 18:00
    Просто напечатайте соответствующую команду в чате. Заменить никнейм 1 на действительный никнейм
    • /ignore nick1 Игнорировать пользователя чатом
    • /unignore nick1 Перестать игнорировать пользователя чатом
    • /ignorelist Показать проигнорированных пользователей чатом